Location: Branche des Alpilles
(43.6087°N, 4.6976°E)
Time: 19:14:49
(UTC+00:00)

Tiangong - Pass Details

Date: 27 September 2021
Orbit: 382 x 384 km, 41.5° (Epoch: 20 October)

Event Time Altitude Azimuth Distance (km) Brightness Sun altitude
Exits shadow 04:31:57 12° 214° (SW) 1,271 3.3 -12.0°
Maximum altitude 04:34:18 26° 159° (SSE) 788 2.8 -11.6°
Drops below altitude 10° 04:37:00 10° 100° (E) 1,395 5.2 -11.2°
Sets 04:39:15 0° 87° (E) 2,249 7.2 -10.7°
